Simultaneous Nadir Overpasses (SNOs) Predictions

Prediction of SNOs between AQUA and METOP-B Satellite Orbit:

Table of predicted SNOs for the next 14.0 days since TLE Epoch: 5/17/2014
Index Date (AQUA) Time (AQUA) Lat,Lon (AQUA) SZA (AQUA ) Date (METOP-B) Time (METOP-B) Lat,Lon (METOP-B) SZA (METOP-B ) Distance(km) Time Diff (sec)
1 05/18/2014 03:53:12 -73.77, -63.80 125.78 05/18/2014 03:52:42 -73.75, -63.82 125.80 2.20 30
2 05/18/2014 04:42:41 73.83, 103.70 54.28 05/18/2014 04:43:20 73.85, 103.74 54.29 2.18 39
3 05/20/2014 23:27:24 -73.75, 2.68 126.40 05/20/2014 23:27:05 -73.77, 2.63 126.38 2.42 19
4 05/21/2014 00:16:53 73.82, 170.17 53.67 05/21/2014 00:17:44 73.82, 170.07 53.66 3.01 51
5 05/23/2014 18:12:04 73.43, -97.83 52.72 05/23/2014 18:10:54 73.40, -99.15 52.74 42.21 70
6 05/23/2014 19:01:36 -73.78, 69.07 126.92 05/23/2014 19:01:28 -73.78, 69.05 126.92 0.66 8
7 05/23/2014 19:51:05 73.85,-123.45 53.15 05/23/2014 19:52:07 73.83,-123.50 53.13 2.92 62
8 05/26/2014 13:46:19 73.72, -31.98 52.52 05/26/2014 13:45:10 73.70, -32.05 52.52 2.63 69
9 05/26/2014 14:35:46 -73.80, 135.49 127.41 05/26/2014 14:35:50 -73.78, 135.46 127.42 1.73 4
10 05/26/2014 15:25:15 73.87, -57.05 52.67 05/26/2014 15:26:28 73.88, -56.97 52.67 2.65 73
11 05/29/2014 09:20:29 73.73, 34.45 52.07 05/29/2014 09:19:32 73.75, 34.46 52.11 2.63 57
12 05/29/2014 10:09:56 -73.80,-158.07 127.85 05/29/2014 10:10:12 -73.83,-158.03 127.83 2.98 16
